Home   Weather   Berkeley   Past weeks

Flag for USA Past Weather in Berkeley, California, USA — Yesterday and Last 2 Weeks

Now
51 °F

Partly cloudy.


Feels Like: 46 °F
Forecast: 51 / 55 °F
Wind: 14 mph from West

Location: Metro Oakland International Airport

Current Time: Jan 21, 2017 at 5:14:37 am

Latest Report: Jan 21, 2017 at 3:53 am


Visibility: 10 mi

Pressure: 29.61 "Hg

Humidity: 83%

Dew Point: 46 °F

Location of BerkeleyLocation

Past Weather in Berkeley — Graph

°F

Berkeley Temperature Yesterday

Maximum temperature yesterday: 55 °F (at 12:26 pm)
Minimum temperature yesterday: 48 °F (at 4:53 am)
Average temperature yesterday: 52 °F

High & Low Weather Summary for the Past Weeks

 TemperatureHumidityPressure
High61 °F (Jan 7, 1:53 pm)100% (Jan 7, 11:53 pm)30.25 "Hg (Jan 7, 11:53 pm)
Low38 °F (Jan 6, 6:53 am)39% (Jan 6, 11:53 am)29.34 "Hg (Jan 20, 6:53 am)
Average51 °F84%29.95 "Hg
* Reported Jan 6 3:53 am — Jan 21 3:53 am, Berkeley, Weather by CustomWeather, © 2017

Note: Actual official high and low records may vary slightly from our data, if they occured in-between our weather recording intervals... More about our weather records

Advertising

Berkeley Weather History for the Previous 24 Hours

Scroll right to see more
 ConditionsComfort  
Time TempWeatherWind HumidityBarometerVisibility
3:53 am
Sat, Jan 21
51 °FPartly cloudy.14 mph83%29.61 "Hg10 mi
3:11 am52 °FLight rain. Mostly cloudy.16 mph83%29.60 "Hg8 mi
2:53 am52 °FOvercast.16 mph80%29.58 "Hg10 mi
1:53 am52 °FLight rain. Partly cloudy.17 mph80%29.56 "Hg10 mi
12:53 am52 °FPartly cloudy.16 mph77%29.53 "Hg10 mi
11:53 pm
Fri, Jan 20
51 °FPassing clouds.13 mph80%29.52 "Hg10 mi
10:53 pm51 °FPartly cloudy.13 mph77%29.50 "Hg10 mi
9:53 pm52 °FPartly cloudy.15 mph75%29.48 "Hg10 mi
8:53 pm52 °FPassing clouds.13 mph75%29.45 "Hg10 mi
7:53 pm51 °FPartly cloudy.16 mph77%29.43 "Hg10 mi
6:53 pm51 °FRain. Passing clouds.20 mph77%29.41 "Hg6 mi
6:00 pm51 °FLight rain. Partly cloudy.12 mph77%29.39 "Hg10 mi
4:53 pm52 °FBroken clouds.14 mph77%29.35 "Hg10 mi
3:53 pm53 °FBroken clouds.13 mph74%29.35 "Hg10 mi
2:53 pm52 °FPartly sunny.10 mph80%29.34 "Hg10 mi
1:53 pm52 °FMostly cloudy.15 mph77%29.34 "Hg10 mi
12:53 pm55 °FBroken clouds.15 mph74%29.34 "Hg10 mi
12:26 pm55 °FPartly sunny.13 mph77%29.35 "Hg10 mi
12:14 pm54 °FThundershowers. Partly sunny.12 mph77%29.35 "Hg10 mi
11:53 am53 °FLight rain. Mostly cloudy.15 mph77%29.36 "Hg9 mi
10:53 am54 °FPassing clouds.12 mph83%29.37 "Hg10 mi
9:53 am51 °FCloudy.14 mph89%29.37 "Hg10 mi
8:53 am53 °FMostly cloudy.8 mph93%29.36 "Hg10 mi
7:53 am51 °FCloudy.8 mph92%29.35 "Hg10 mi
7:36 am51 °FLight rain. Cloudy.13 mph92%29.35 "Hg10 mi
6:53 am51 °FLight rain. Mostly cloudy.16 mph89%29.34 "Hg10 mi
5:53 am50 °FOvercast.9 mph86%29.34 "Hg10 mi
Weather by CustomWeather, © 2017

See weather overviewHow to use our weather pages